STARLINK-4152 (53136 NORAD) Tracking and Keplerian Element Data

This shows tracking and keplerian element data for the satellite.

Feedback or suggestion? Click here.




ElementValue
Catalog53136
NameSTARLINK-4152
Epoch Orbit1170
Epoch Day270.25001157
Epoch Year2022
RAAN67.9689
Inclination53.2182
Eccentricity0.0001588
Argument of Perigee47.0962
Mean Anonmoly281.3165
Mean Motion15.08806745
Decay Rate0.00033931
L11 53136U 22083E 22270.25001157 .00033931 00000+0 21417-2 0 9992
L22 53136 53.2182 67.9689 0001588 47.0962 281.3165 15.08806745 11705

Live tracking and technical data element details for STARLINK-4152 (NORAD 53136). STARLINK-4152 can be tracked NOW for your location showing map with azimuth and elevation plus other details from your city location.

Track the satellite on the map from your city or location and see movement details for azimuth, elevation, latitude, longitude, range, height, and movement on the map or in text.







IsCatalogInMostPopularTable: catalog: 53136, numindb: 7
Update: records affected: 1



GetName: 53136 STARLINK-4152

Hit Count: updated at: Thu, 29 Sep 2022 12:18:37 GMT